Location: Unspecified
(0.0000°N, 0.0000°E)
Time: 06:59:52
(UTC+00:00)

Courier 1B - Pass Details

Date: 28 September 2023
Orbit: 962 x 1208 km, 28.3° (Epoch: 06 December)

Event Time Altitude Azimuth Distance (km) Brightness Sun altitude
Rises 16:41:16 0° 329° (NNW) 4,092 11.2 17.3°
Reaches altitude 10° 16:47:16 10° 4° (N) 3,100 10.1 15.8°
Maximum altitude 16:49:02 11° 17° (NNE) 3,023 9.9 15.4°
Drops below altitude 10° 16:50:48 10° 31° (NNE) 3,072 9.8 15.0°
Sets 16:56:36 0° 66° (ENE) 3,974 10.1 13.5°
